Location: *
(45.8589°N, 4.7139°E)
Time: 03:56:21
(UTC+00:00)

Cosmos 841 Rocket - Pass Details

Date: 09 April 2020
Orbit: 747 x 772 km, 74.0° (Epoch: 02 June)

Event Time Altitude Azimuth Distance (km) Brightness Sun altitude
Rises 20:21:15 0° 344° (NNW) 3,258 7.6 -19.9°
Reaches altitude 10° 20:23:49 10° 353° (N) 2,326 6.6 -20.3°
Maximum altitude 20:28:42 37° 60° (ENE) 1,193 4.3 -21.0°
Enters shadow 20:29:34 34° 81° (E) 1,243 4.2 -21.1°
